Preview of NWS' New Version of Forecast
This preview is not operational and should not be used for support decisions.
Latest weather observations around

Philadelphia, Philadelphia International Airport (KPHL)

Using English Units (Switch to International System of Units)
Date/ Time (EDT) Wind (mph) Vis. (mi) Weather Sky Cond. Temp (°F) Rel. Humidity Wind Chill (°F) Heat Index (°F) Pressure Precip. (in)
Air Dwpt 6 hour Altimeter (inHg) Sea level (inHg) 1 hr 3 hr 6 hr
Max Min
Sep 23 02:54 S 8 10 Mostly Clear FEW250 71 65     81%   72 29.97 29.97      
Sep 23 01:54 S 8 10 Clear CLR 72 65     79%   73 29.99 29.99      
Sep 23 00:54 S 8 10 Clear CLR 73 65     76%   74 30.01 30.01      
Sep 22 23:54 S 9 10 Mostly Clear FEW250 74 64     71%   74 30.03 30.02      
Sep 22 22:54 SSW 6 10 Mostly Clear FEW250 76 63     64%   76 30.04 30.04      
Sep 22 21:54 SSW 6 10 Clear CLR 76 64     67%   76 30.05 30.04      
Sep 22 20:54 SSW 5 10 Clear   77 63     62%   77 30.05 30.05      
Sep 22 19:54 S 5 10 Partly Cloudy SCT250 80 64     58%   82 30.05 30.04      
Sep 22 18:54 S 8 10 Mostly Cloudy FEW050 BKN250 83 64     53%   84 30.04 30.04      
Sep 22 17:54 S 9 10 Partly Cloudy FEW050 SCT250 87 63     45%   88 30.04 30.03      
Sep 22 16:54 SSW 9 10 Partly Cloudy FEW050 SCT250 89 63     42%   90 30.05 30.04      
Sep 22 15:54 WSW 11 10 Partly Cloudy FEW050 SCT250 88 62     42%   88 30.06 30.06      
Sep 22 14:54 WSW 13 10 Partly Cloudy FEW050 SCT250 88 61     40%   88 30.08 30.07      
Sep 22 13:54 7 10 Partly Cloudy FEW050 SCT250 86 64     48%   87 30.1 30.1      
Sep 22 12:54 SW 8 10 Partly Cloudy FEW050 SCT250 85 64     50%   86 30.13 30.12      
Sep 22 11:54 SSW 6 10 Mostly Clear FEW250 81 65     58%   83 30.15 30.15      
Sep 22 10:54 WSW 5 10 Partly Cloudy SCT250 78 65     64%   79 30.16 30.16      
Sep 22 09:54 S 3 10 Partly Cloudy FEW065 SCT250 73 65     76%   74 30.17 30.17      
Sep 22 08:54 S 3 10 Partly Cloudy FEW070 SCT250 68 63     84%     30.18 30.18      
Sep 22 08:46 SSE 3 10 Partly Cloudy FEW070 SCT250 68 63     84%     30.18        
Sep 22 07:54 Calm 9 Mostly Clear FEW070 66 63     90%     30.18 30.18      
Sep 22 07:09 Calm 8 Partly Cloudy SCT065 64 62     93%     30.17        
Sep 22 06:54 Calm 10 Partly Cloudy SCT065 64 61     90%     30.17 30.17      
Sep 22 05:54 Calm 10 Mostly Clear FEW050 64 61     90%     30.17 30.16      
Sep 22 04:54 Calm 10 Clear CLR 65 62     90%     30.17 30.17      
Sep 22 03:54 Calm 10 Clear CLR 65 62     90%     30.17 30.16      
Sep 22 02:54 Calm 10 Clear CLR 66 63     90%     30.18 30.17      
Sep 22 01:54 SSW 3 10 Clear CLR 66 63     90%     30.19 30.19      
Sep 22 00:54 S 3 10 Clear CLR 67 63     87%     30.19 30.19      
Sep 21 23:54 SSW 3 10 Clear CLR 68 61     78%     30.19 30.19      
Sep 21 22:54 SW 5 10 Clear CLR 70 62     76%     30.2 30.19      
Sep 21 21:54 SSW 7 10 Clear CLR 71 61     70%   71 30.2 30.19      
Sep 21 20:54 S 9 10 Partly Cloudy SCT250 73 58     59%   73 30.18 30.18      
Sep 21 19:54 S 5 10 Partly Cloudy SCT250 75 57     54%   75 30.17 30.16      
Sep 21 18:54 S 5 10 Partly Cloudy SCT250 79 55     44%   79 30.16 30.16      
Sep 21 17:54 SE 5 10 Partly Cloudy SCT250 83 54     37%   82 30.16 30.16      
Sep 21 16:54 SSE 5 10 Partly Cloudy SCT250 84 52     33%   82 30.16 30.16      
Sep 21 15:54 SSE 6 10 Mostly Cloudy BKN250 85 53     34%   83 30.16 30.16      
Sep 21 14:54 SSE 7 10 Partly Cloudy SCT250 84 53     35%   83 30.18 30.17      
Sep 21 13:54 S 8 10 Partly Cloudy SCT250 82 53     37%   81 30.19 30.19      
Sep 21 12:54 SSW 10 10 Partly Cloudy SCT250 81 51     35%   80 30.21 30.21      
Sep 21 11:54 S 5 10 Partly Cloudy SCT250 77 59     54%   77 30.24 30.23      
Sep 21 10:54 Calm 10 Partly Cloudy SCT250 74 59     60%   74 30.25 30.24      
Sep 21 09:54 SW 6 10 Partly Cloudy FEW008 SCT250 68 60     76%     30.25 30.25      
Sep 21 08:54 SW 7 10 Partly Cloudy FEW007 SCT250 64 59     84%     30.25 30.25      
Sep 21 07:54 SW 3 10 Partly Cloudy FEW009 SCT250 61 57     87%     30.24 30.24      
Sep 21 06:54 W 5 10 Mostly Clear FEW250 60 56     86%     30.24 30.24      
Sep 21 05:54 WSW 6 10 Clear CLR 60 56     86%     30.24 30.23      
Sep 21 04:54 WSW 3 10 Clear CLR 60 55     83%     30.23 30.23      
Sep 21 03:54 SW 6 10 Clear CLR 61 55     81%     30.23 30.23      
Sep 21 02:54 SW 5 10 Clear CLR 62 54     75%     30.24 30.24      
Sep 21 01:54 SW 7 10 Clear CLR 62 54     75%     30.24 30.24      
Sep 21 00:54 WSW 6 10 Clear CLR 63 53     70%     30.24 30.23      
Sep 20 23:54 SW 5 10 Clear CLR 64 54     70%     30.23 30.22      
Sep 20 22:54 SSW 5 10 Clear CLR 66 53     63%     30.22 30.22      
Sep 20 21:54 SW 8 10 Mostly Clear FEW250 67 51     57%     30.23 30.23      
Sep 20 20:54 SW 9 10 Mostly Clear FEW250 70 51     51%     30.22 30.22      
Sep 20 19:54 SW 13 10 Clear   73 49     43%   72 30.21 30.2      
Sep 20 18:54 SW 10 10 Mostly Clear FEW250 75 44     33%   74 30.19 30.19      
Sep 20 17:54 SSW 9 10 Clear   77 46     33%   76 30.19 30.19      
Sep 20 16:54 SSW 9 10 Partly Cloudy SCT300 77 47     35%   76 30.19 30.19      
Sep 20 15:54 SW 9 10 Partly Cloudy SCT300 77 47     35%   76 30.2 30.19      
Sep 20 14:54 SW 11 10 Mostly Cloudy BKN300 76 48     37%   75 30.22 30.21      
Sep 20 13:54 WSW 10 10 Mostly Cloudy BKN300 75 47     37%   74 30.23 30.23      
Sep 20 12:54 SSW 10 10 Mostly Cloudy BKN300 72 48     43%   71 30.26 30.25      
Sep 20 11:54 WSW 9 10 Mostly Cloudy BKN300 71 47     42%   70 30.28 30.28      
Sep 20 10:54 SW 10 10 Mostly Cloudy BKN300 68 49     50%     30.3 30.3      
Sep 20 09:54 WSW 7 10 Partly Cloudy SCT300 64 52     65%     30.32 30.32      
Sep 20 08:54 W 5 10 Partly Cloudy SCT300 61 53     75%     30.33 30.32      
Sep 20 07:54 W 3 10 Partly Cloudy SCT300 57 51     81%     30.32 30.31      
Sep 20 06:54 WSW 5 10 Partly Cloudy FEW100 SCT300 55 50     83%     30.31 30.3      
Sep 20 05:54 WSW 6 10 Partly Cloudy SCT300 55 48     77%     30.29 30.29      
Sep 20 04:54 W 6 10 Partly Cloudy SCT280 55 48     77%     30.29 30.29      
Sep 20 03:54 W 5 10 Mostly Cloudy BKN280 56 49     77%     30.29 30.28      
Sep 20 02:54 WSW 3 10 Partly Cloudy SCT280 56 51     84%     30.29 30.28      
Sep 20 01:54 SW 3 10 Clear CLR 57 51     81%     30.29 30.29      
Sep 20 00:54 SSW 7 10 Mostly Clear FEW280 59 50     72%     30.29 30.29      
May 14 16:54 SSW 9 10 Partly Cloudy FEW025 SCT230 73 62     68%   73 29.96 29.95      
May 14 12:54 3 7 Cloudy OVC014 64 57     78%     30.03 30.02      
May 13 16:54 SSE 6 10 Cloudy FEW007 OVC010 56 53     90%     30.1 30.1   0  
May 13 11:54 E 10 9 Cloudy OVC009 55 52     89%     30.15 30.15      
May 13 01:54 ENE 9 5 Fog/Mist OVC009 57 55     93%     30.1 30.09     1
May 12 11:15 6 9 Cloudy OVC010 61 56     83%     30.11        
May 12 09:54 E 6 10 Cloudy OVC009 59 56     90%     30.11 30.11      
May 12 07:54 ENE 14 6 Fog/Mist BKN008 OVC012 55 53     93%     30.11 30.11     1
May 12 05:54   3 Thunderstorms and Rain and Fog/Mist FEW018 BKN032 OVC046 54 52     93%     30.1 30.1 0    
May 12 03:51   4 Heavy Rain SCT035 OVC055 57 50     77%     30.15   0    
May 12 02:54 NNE 9 10 Cloudy BKN060 OVC100 60 46     60%     30.1 30.09      
May 12 00:54 E 5 10 Cloudy FEW041 BKN075 OVC095 60 46     60%     30.11 30.11 0    
May 11 15:54 3 10 Partly Cloudy FEW070 FEW100 SCT260 76 43     31%   75 30.01 30.01      
May 11 12:54 WNW 13 10 Partly Cloudy SCT055 SCT250 74 49     41%   73 30.01 30.01      
Jun 10 21:54 SSW 6 10 Mostly Clear FEW070 78 58     50%   78 30.05 30.04      
Jun 10 15:54   10 Mostly Clear FEW065 87 53     31%   85 29.99 29.99      
Jun 10 11:54 SW 9 10 Mostly Clear FEW150 FEW280 82 55     40%   81 30.03 30.03      
Jun 10 08:54 WSW 6 10 Mostly Cloudy FEW060 BKN120 BKN280 73 56     55%   73 30.03 30.03      
Jun 08 08:54 6 10 Clear   64 51     63%     30.01 30.01      
Jun 07 16:54 ENE 5 10 Cloudy OVC047 65 48     54%     30.02 30.01      
Jun 07 09:37 ENE 9 10 Cloudy BKN023 OVC040 57 47     69%     30.01        
Jun 06 06:32 NE 8 2 Rain and Fog/Mist SCT004 BKN012 OVC031 61 59     93%     29.7   0